Regional Weather Roundup
Issued by NWS

Home | Current Version | Previous Version | Graphics & Text | Print | Product List | Glossary On
Versions: 1 2 3 4 5 6 7 8 9 10 11 12 13 14 15 16 17 18 19 20 21 22 23 24 25 26 27 28 29 30 31 32 33 34 35 36 37 38 39 40 41 42 43 44 45 46 47 48 49 50
000
ASUS43 KBIS 240110
RWRND

NORTH DAKOTA REGIONAL WEATHER ROUNDUP
NATIONAL WEATHER SERVICE BISMARCK ND
800 PM CDT FRI JUN 23 2017

NOTE: "FAIR" INDICATES FEW OR NO CLOUDS BELOW 12,000 FEET WITH NO
SIGNIFICANT WEATHER AND/OR OBSTRUCTIONS TO VISIBILITY.


NDZ001>003-009>011-017-240200-
NORTHWEST NORTH DAKOTA

CITY           SKY/WX    TMP DP  RH WIND       PRES   REMARKS
WILLISTON      CLOUDY    65  33  30 NW13      30.12S
MINOT          MOSUNNY   61  35  37 NW17G28   30.06R
MINOT AFB      SUNNY     62  34  34 NW22G30   30.05R
$$

NDZ018>021-031>035-040>046-240200-
SOUTHWEST NORTH DAKOTA

CITY           SKY/WX    TMP DP  RH WIND       PRES   REMARKS
BISMARCK       SUNNY     65  35  33 NW16G33   30.09R
DICKINSON      MOSUNNY   63  27  25 NW20      30.12R
GARRISON         N/A     61  34  36 NW21G32   30.09R
HETTINGER ARPT SUNNY     65  28  24 NW22G29   30.15R
$$

NDZ004>008-012>016-024-026-027-054-240200-
NORTHEAST NORTH DAKOTA

CITY           SKY/WX    TMP DP  RH WIND       PRES   REMARKS
GRAND FORKS    PTSUNNY   60  42  51 NW16G24   29.95R
GRND FRKS AFB  CLOUDY    59  41  49 N17G25    29.96R
DEVILS LAKE    CLOUDY    56  38  50 NW20      30.02R
$$

NDZ022-023-025-028>030-036>039-047>053-240200-
SOUTHEAST NORTH DAKOTA

CITY           SKY/WX    TMP DP  RH WIND       PRES   REMARKS
FARGO          CLOUDY    65  41  41 NW21G30   29.95R
JAMESTOWN      CLOUDY    61  36  39 NW23G33   30.01R
$$





USA.gov is the U.S. government's official web portal to all federal, state and local government web resources and services.